Location: Babice
(50.3480°N, 22.9363°E)
Time: 11:50:31
(UTC+00:00)

Okean 3 - Pass Details

Date: 14 July 2020
Orbit: 576 x 601 km, 82.5° (Epoch: 07 August)

Event Time Altitude Azimuth Distance (km) Brightness Sun altitude
Rises 00:12:26 0° 351° (N) 2,806 7.9 -14.8°
Reaches altitude 10° 00:14:38 10° 353° (N) 1,903 7.0 -14.7°
Maximum altitude 00:18:50 73° 79° (ENE) 613 3.6 -14.4°
Enters shadow 00:22:17 15° 163° (SSE) 1,608 5.3 -14.2°
